LogoCoinalyze
    Ad-Free Version Hauptseite Märkte Finanzierungsraten
    Futures-Daten
    • Aggregierte Daten (Coins)
    • Einzelne Charts
    • Globale Charts
    Preisalarme
    TA
    Bitcoin Ethereum BNB Ripple Tron ZCash Dogecoin Monero Chainlink UNUS SED LEO Cardano Stellar Lumens Bitcoin Cash Litecoin Hedera Cronos Polkadot Ethereum Classic Algorand Cosmos Quant Dash VeChain Bitcoin SV BitTorrent Terra Tezos Decred Iota The Graph THETA Decentraland NEO Chiliz MultiversX Golem Horizen Basic Attention Token Qtum 0x DigiByte Beam RIF Token FTX Token Holo FUNToken Ontology Zilliqa aelf Nano Enjin Coin Ravencoin Mask Network Verge Siacoin Status WINk Waves IoTeX iExec RLC Power Ledger Steem Kyber Network Crystal Lisk Ark WOO Network IOST Ardor WAX Icon Storj Wanchain Loopring Bitcoin Diamond Augur AdEx Bitcoin Gold OmiseGO NEM MonaCoin BitShares Ren Komodo V Systems Nuls Mithril SOLVE Maker EOS Aion Nebulas HedgeTrade Bread Fetch.ai TomoChain Polygon Fantom Waltonchain GXChain Bytom Metaverse ETP MaidSafeCoin QASH
    Bestellen nach:
    Mehr
    • API
    • Kerzenformationen
    • Spenden
    • Kontakt
    • Sitemap
    • Privacy Policy
    • Disclaimer
    • Theme:
    Deutsch
    • English
    • Français
    • Русский
    • Türkçe
    • Nederlands
    • Português (BR)
    • Español
    • 한국어
    • 简体中文
    • 日本語
     
    Anmelden / Registrieren
    Markets/ Pepe/ PEPE zu USDC/ PEPEUSDC Binance
    Trades
    WL
    Chat
    Stat
    Neuigkeiten
    ⦷
    AAA
    0.00000382 50000000.00000000 18:54:32
    0.00000382 4022939.00000000 18:53:48
    0.00000382 51477780.00000000 18:52:28
    0.00000382 229692800.00000000 18:51:56
    0.00000382 2330884.00000000 18:50:53
    0.00000381 395754.00000000 18:50:53
    0.00000382 2654437.00000000 18:50:35
    0.00000382 153249994.00000000 18:49:58
    0.00000382 295613.00000000 18:49:58
    0.00000382 261781.00000000 18:49:47
    0.00000382 261781.00000000 18:49:47
    0.00000382 261781.00000000 18:49:47
    0.00000382 261781.00000000 18:49:47
    0.00000382 261781.00000000 18:49:47
    0.00000382 43750663.00000000 18:49:47
    0.00000382 811953201.00000000 18:49:37
    0.00000382 889434.00000000 18:49:37
    0.00000382 690202790.00000000 18:49:33
    0.00000382 321506800.00000000 18:49:29
    0.00000382 2010394.00000000 18:49:29
    0.00000381 233695905.00000000 18:48:36
    0.00000381 508680.00000000 18:48:15
    0.00000381 258863831.00000000 18:48:04
    0.00000381 3673428.00000000 18:48:02
    0.00000381 5021359.00000000 18:47:36
    0.00000382 4985419.00000000 18:46:57
    0.00000382 348573.00000000 18:46:52
    0.00000381 1000000000.00000000 18:46:29
    0.00000381 5736390.00000000 18:46:02
    0.00000381 13645176.00000000 18:46:00
    0.00000381 297348.00000000 18:45:36
    0.00000380 2152073.00000000 18:45:34
    0.00000381 297348.00000000 18:45:34
    0.00000380 22841268.00000000 18:45:30
    0.00000381 26396478.00000000 18:45:29
    0.00000381 32448754.00000000 18:45:19
    0.00000381 32335471.00000000 18:44:50
    0.00000382 1524978.00000000 18:44:49
    0.00000381 15868259.00000000 18:44:42
    0.00000381 14941001.00000000 18:44:30
    0.00000381 15623510.00000000 18:44:22
    0.00000382 22752112.00000000 18:44:19
    0.00000381 33871785.00000000 18:44:10
    0.00000382 12582666.00000000 18:43:59
    0.00000382 22540816.00000000 18:43:49
    0.00000381 22407500.00000000 18:43:47
    0.00000381 33059821.00000000 18:43:30
    0.00000381 23515567.00000000 18:43:22
    0.00000382 1608009.00000000 18:43:14
    0.00000381 31844488.00000000 18:43:12
    0.00000382 34117367.00000000 18:42:59
    0.00000382 382248.00000000 18:42:52
    0.00000381 17306998.00000000 18:42:47
    0.00000382 13553366.00000000 18:42:39
    0.00000382 420259.00000000 18:42:39
    0.00000381 16665505.00000000 18:42:22
    0.00000381 315171.00000000 18:42:15
    0.00000382 110519901.00000000 18:42:13
    0.00000382 26383569.00000000 18:42:07
    0.00000383 33950309.00000000 18:41:59
    0.00000382 28855235.00000000 18:41:22
    0.00000383 36067954.00000000 18:40:59
    0.00000383 38966027.00000000 18:40:38
    0.00000383 32271368.00000000 18:40:29
    0.00000383 26495832.00000000 18:39:59
    0.00000383 40768840.00000000 18:39:58
    0.00000383 20124725.00000000 18:39:38
    0.00000383 26113413.00000000 18:39:19
    0.00000383 23338933.00000000 18:39:08
    0.00000383 451831857.00000000 18:39:08
    0.00000383 17704859.00000000 18:38:59
    0.00000383 28324817.00000000 18:38:38
    0.00000383 261097.00000000 18:38:33
    0.00000383 80744486.00000000 18:38:33
    0.00000383 261097.00000000 18:38:33
    0.00000383 261097.00000000 18:38:33
    0.00000383 261097.00000000 18:38:33
    0.00000383 261097.00000000 18:38:33
    0.00000383 15220062.00000000 18:38:29
    0.00000383 27594457.00000000 18:37:59
    0.00000383 32670325.00000000 18:37:24
    0.00000383 21037333.00000000 18:36:59
    0.00000383 35775786.00000000 18:36:34
    0.00000383 34532574.00000000 18:35:59
    0.00000383 39912581.00000000 18:35:29
    0.00000383 36232838.00000000 18:34:59
    0.00000383 721525.00000000 18:34:55
    0.00000383 31556456.00000000 18:34:50
    0.00000383 115019448.00000000 18:34:50
    0.00000383 144619860.00000000 18:34:50
    0.00000383 2929504.00000000 18:34:50
    0.00000384 39435674.00000000 18:34:44
    0.00000384 24280302.00000000 18:34:25
    0.00000384 46216819.00000000 18:33:59
    0.00000384 25894926.00000000 18:33:34
    0.00000383 28496757.00000000 18:33:28
    0.00000384 31600990.00000000 18:32:59
    0.00000384 28016762.00000000 18:32:44
    0.00000383 40520615.00000000 18:32:43
    0.00000383 295658.00000000 18:32:32
    Abmelden
    AAA
    Hilfe
    🙂 🤣 😎 🤗 😛 😉 😜 🤑 🤔 😑 😴 😕 🙃 😲 😇 🙁 😢 😬 😟 😠 🕺 🏃 💪 ✌ 👌 👍 👎 👏 👋 🤝 🍺 🍻 🐋 🐟 🦈 🗽 🚄 ✈ 🛑 🚀 🏦 🌚 ⭐ 🌞 ⚡ 🏆 💰 💲 🔨 ❓ ❗ 💯 🔶 🏁
    ☺
    Anmelden oder Registrieren zum Chatten
    24 Stunden
    Veränderung
    +12.35%
    Volumen
    787,903,563,875
    Hoch
    0.00000387
    Tief
    0.00000338
    7 Tage
    Veränderung
    -0.78%
    Volumen
    3,932,063,548,001
    Hoch
    0.00000401
    Tief
    0.00000336
    30 Tage
    Veränderung
    +31.27%
    Volumen
    18,968,143,291,814
    Hoch
    0.00000455
    Tief
    0.00000252
    DOGE, SHIB, PEPE, or Something Else: Which Meme Coin Can Make History in September? (3 AIs Weigh In)
    "DOGE remains the most likely to record the largest move in dollar terms and lead the entire sector," ChatGPT stated.
    cryptopotato.com
    Sept 3, 2026 00:41
    Pepe price rallies 25% as whale demand and futures interest surge
    Key takeaways Pepe has gained 25% this week, including a combined 22% advance over the previous two days. Seven whale transactions worth more than $1 million each occurred Thursday, the highest...
    coinjournal.net
    Aug 21, 2026 08:41
    PEPE Supply on Exchanges Just Took a Massive Hit – What’s Next?
    A drop in PEPE exchange balances has added to bullish expectations despite muted trader interest.
    cryptopotato.com
    Aug 6, 2026 20:02
    PEPE Exchange Outflows Hit Nearly 2-Year High as Whales Accumulate
    Pepe (PEPE) recorded its largest single-day exchange outflow since November 2024, with 4.54 trillion tokens leaving trading platforms, signaling that holders are moving supply away from immediate...
    beincrypto.com
    Aug 6, 2026 04:57
    Meme Coin Based on White House Shooter Conspiracy Rallies 320%
    $HENRY surged 300% after a 2023 Pepe tweet appeared to name the White House shooter, fueling a viral time-travel meme. The post Meme Coin Based on White House Shooter Conspiracy Rallies 320%...
    beincrypto.com
    Apr 27, 2026 16:11
    PEPE surges 4% as market sentiment improves, eyes Key resistance breakout
    Key takeaways Pepe extends gains on Wednesday, stretching its rally from the 50-day EMA. Derivatives data show heightened retail activity as risk-on sentiment returns to the market. Pepe (PEPE) is...
    coinjournal.net
    Apr 22, 2026 11:44
    Why The PEPE Price Could Stage A 55X Rally To Reach New $0.0001 ATH
    The PEPE price has now started to edge back into bullish conversations after the recent inflows into the crypto market. The last time PEPE’s weekly chart printed the kind of structure now...
    newsbtc.com
    Apr 21, 2026 15:30
    Pepe (PEPE) surges 9%, drawing interest from whales
    Key takeaways PEPE is up 9% in the last 24 hours, making it one of the best performers among the top 50 cryptocurrencies by market cap. The rally comes amid renewed interest from whales and retail...
    coinjournal.net
    Apr 16, 2026 07:40
    Murad Says SPX6900 (SPX) Is Primed for a Rally — Is He Right This Time?
    Crypto influencer Murad Mahmudov claims SPX6900 (SPX) is stabilizing at the same market cap level where Dogecoin (DOGE) and Pepe (PEPE) consolidated before their explosive rallies. The...
    beincrypto.com
    Apr 5, 2026 21:36
    The Shiba Inu Of This Cycle: Analyst Shares Why It Is Better To Buy PEPE Now
    In the bull market cycle of 2021-2022, the Shiba Inu meme coin made waves in a way that changed the face of meme coins forever. This came after Dogecoin’s initial 36,000% rally, and Shiba Inu...
    newsbtc.com
    Apr 4, 2026 07:30
    PEPE Explodes by 18% Amid Altcoin Rally, BTC Tapped $74K: Market Watch
    The frog-themed meme coin is today's biggest gainer, followed by TAO, DOT, and BONK.
    cryptopotato.com
    Mar 16, 2026 10:56
    Should PEPE traders brace for volatility as short squeeze potential builds?
    The memecoin market has seen its collective market capitalization drop by 48% over the past year, and 6.9% over the past month, according to CoinMarketCap. According to Glassnode, the memecoin...
    ambcrypto.com
    Mar 7, 2026 18:00
    Geben Sie einfach das Kommando im Chat ein. Ersetzen Sie dabei nick1 durch den jeweiligen Nick.
    • /ignore nick1 Einen Chat-User ignorieren
    • /unignore nick1 Einen Chat-User nicht mehr ignorieren
    • /ignorelist Ignorierte Chat-User anzeigen